Wind_Speed
10 8 8 8 9 10 11 12 13 15 16 15 15 15 17 16 15 14 11 9 7 9 11 15 18 19 20 21 21 20 18 16 15 13 11 10 8 7 5 4 4 4 3 3
10 9 9 10 10 11 12 13 14 15 14 14 14 15 16 16 15 13 10 8 5 6 8 12 15 16 17 19 19 19 17 16 14 12 11 9 8 7 5 4 4 3 3 2
10 10 10 10 10 11 12 13 13 15 15 14 14 14 15 15 13 12 10 6 4 3 6 10 12 15 16 17 17 17 16 15 13 11 10 9 8 7 6 5 4 4 3 2
12 11 11 10 10 11 11 12 13 14 14 15 14 12 13 13 13 11 8 4 2 3 6 9 11 14 14 14 15 15 15 15 13 11 10 9 8 7 6 6 5 4 3 2
13 13 12 11 11 12 11 12 12 13 12 12 12 11 12 11 11 10 7 3 1 2 5 8 10 12 13 13 14 15 15 14 13 12 11 9 8 7 7 6 6 5 4 3
14 14 13 12 12 12 12 13 12 12 11 10 11 9 10 10 9 8 5 3 0 2 5 7 9 10 11 12 13 13 14 13 12 11 11 10 9 8 8 7 6 5 4 4
14 15 14 13 14 13 12 12 11 11 10 10 11 9 9 9 8 7 5 3 2 1 4 6 8 9 10 11 11 12 12 12 11 11 10 10 9 9 8 7 7 6 5 4
16 15 16 15 15 14 13 12 10 10 10 10 11 9 9 8 8 6 5 3 2 0 2 5 7 8 9 9 10 12 12 12 11 11 11 11 10 10 9 8 8 7 6 6
17 17 19 18 16 16 15 14 12 11 11 9 10 10 10 9 8 6 5 3 2 2 3 4 6 8 9 9 10 11 12 12 11 11 12 12 11 11 10 9 9 9 9 9
19 19 20 20 19 18 18 17 15 11 10 9 10 10 10 10 9 7 6 5 4 4 4 5 7 8 9 9 10 11 12 12 12 12 12 12 12 11 11 11 11 11 11 12
19 19 20 21 20 20 19 18 16 14 12 10 10 11 13 11 10 9 8 7 6 5 5 6 7 8 9 9 10 11 12 12 13 13 13 13 13 13 13 13 13 14 14 14
20 20 21 22 21 20 19 18 16 15 14 12 10 11 14 12 11 10 10 9 9 8 8 7 8 9 9 10 11 12 13 13 14 14 15 15 15 15 16 16 16 17 17 17
22 22 21 22 22 21 20 19 18 16 15 13 11 11 15 13 12 11 11 11 10 11 10 10 10 10 11 11 12 13 14 14 15 16 17 17 18 18 19 19 19 20 20 21
23 23 21 21 21 21 20 19 18 16 16 15 14 14 16 15 15 14 13 12 12 12 12 12 11 12 13 13 14 15 15 16 17 18 18 19 20 21 22 22 23 23 24 24
23 22 22 22 22 22 20 18 18 18 17 17 16 16 17 17 17 16 15 15 14 14 14 14 14 15 15 16 16 17 18 18 19 20 21 22 23 24 25 25 26 27 27 28
24 23 22 22 21 20 19 19 19 18 18 18 17 18 19 18 19 18 18 17 17 17 17 17 17 18 18 18 19 19 20 21 22 23 24 25 26 26 27 28 29 29 30 31
24 22 21 21 20 19 18 19 19 20 19 19 19 20 19 19 19 20 20 20 20 20 20 20 20 21 21 21 22 22 23 23 24 25 26 28 29 29 30 30 31 32 32 32
23 22 21 20 19 18 18 18 18 19 20 20 20 20 20 21 20 20 21 21 22 22 23 24 24 24 24 24 25 25 25 26 27 28 29 30 31 32 33 34 34 34 34 34
23 22 22 20 19 19 19 18 19 20 21 21 21 21 21 21 22 22 22 22 23 24 25 26 27 26 27 27 27 27 28 29 29 30 32 32 33 34 35 36 35 36 35 34
21 21 21 20 20 19 21 19 19 20 20 20 21 21 21 22 23 24 24 24 25 26 26 27 29 30 30 30 30 31 32 32 33 34 34 35 35 36 36 36 36 37 36 36
20 20 20 20 19 20 20 19 19 19 19 20 21 21 22 23 24 24 25 25 26 27 28 29 31 32 33 34 34 35 35 35 36 36 36 36 37 38 38 38 38 38 38 38
19 18 18 18 18 20 20 20 20 20 20 21 21 22 23 24 24 25 26 27 28 29 30 31 32 34 36 36 36 36 36 37 37 37 38 38 37 38 39 39 39 40 40 40
18 18 19 19 19 20 20 20 20 20 21 22 22 23 23 23 24 25 26 27 28 29 30 31 32 34 36 37 38 38 37 38 38 39 38 39 39 40 41 41 41 42 43 43
19 19 20 20 21 21 21 21 21 22 22 22 23 23 24 24 24 25 26 27 28 29 29 29 31 33 35 36 36 36 37 37 38 39 39 40 41 41 42 43 44 45 45 46
19 20 20 21 22 22 22 22 23 23 23 23 23 23 24 25 25 26 26 26 27 27 28 29 31 32 34 35 36 36 36 36 37 39 40 40 42 42 44 45 45 46 47 48
20 20 21 22 21 22 23 23 23 24 24 24 24 25 24 25 25 26 27 27 27 27 28 29 30 31 32 34 36 37 37 37 38 39 40 41 41 42 43 45 46 48 49 51
Wind_Direction
288 283 283 283 290 295 303 310 310 314 320 323 329 333 333 333 330 328 324 309 275 229 218 210 205 203 205 206 208 211 212 214 212 215 216 219 223 233 240 247 253 254 251 263
272 272 275 283 290 296 303 309 311 312 318 322 327 333 334 335 335 331 325 314 287 238 216 202 199 202 201 201 202 206 209 209 209 211 214 219 221 226 231 231 235 232 232 245
259 255 267 277 287 296 301 305 307 310 316 321 325 333 334 335 337 335 328 310 286 248 204 191 194 193 195 200 202 204 203 204 205 209 213 218 218 220 219 219 219 217 214 217
249 252 259 269 280 292 298 303 309 312 319 324 329 337 336 338 342 344 341 324 286 219 196 191 190 191 194 197 200 201 200 202 206 210 214 216 216 216 215 212 210 208 203 195
244 246 254 262 273 284 291 299 307 315 318 322 328 336 337 337 341 346 351 7 43 184 188 188 189 191 196 194 197 199 202 204 207 209 212 216 219 219 213 208 205 204 199 192
240 243 249 257 269 278 290 298 302 314 322 324 320 328 332 336 342 345 347 5 37 183 184 184 185 189 193 193 198 201 203 203 205 211 215 218 217 214 211 208 207 205 203 201
241 242 248 254 267 277 287 298 309 318 321 308 309 316 320 327 335 343 352 9 18 169 186 189 191 194 196 198 200 201 205 207 212 215 217 218 215 212 213 213 214 214 213 217
237 242 248 253 262 270 276 281 286 288 290 296 304 308 311 315 321 329 338 347 354 257 212 205 204 205 204 208 209 210 211 212 216 219 219 219 217 217 219 221 224 227 229 236
234 238 245 250 257 264 269 267 272 280 290 294 292 297 304 306 308 312 313 318 295 269 238 226 219 216 216 218 220 219 216 218 222 225 224 223 223 224 227 230 234 237 242 249
233 239 246 251 258 263 262 264 265 271 279 278 284 295 295 298 300 300 298 293 289 277 261 248 238 231 227 229 230 228 226 228 230 231 230 229 229 231 234 238 243 247 251 255
236 242 251 255 261 263 261 259 258 261 263 265 270 275 276 286 289 291 292 286 278 272 267 257 246 239 236 237 236 236 237 237 236 237 236 236 237 240 243 246 251 255 258 261
240 244 252 258 261 259 258 254 255 262 266 265 263 267 270 275 279 280 282 282 278 272 267 259 251 246 243 242 241 241 241 242 242 242 242 243 245 248 251 253 256 259 262 264
241 247 252 259 264 262 256 251 253 259 260 263 264 267 271 267 268 272 273 273 274 274 272 267 260 255 251 248 247 247 247 247 247 247 248 249 251 254 256 258 259 262 263 265
242 246 247 253 258 260 257 250 252 256 259 261 261 255 262 261 262 265 264 264 267 268 269 269 267 263 260 257 255 255 255 255 254 253 254 255 256 258 259 261 263 264 265 267
245 248 248 251 254 253 251 250 250 252 256 256 257 258 258 257 256 258 259 259 261 263 263 264 264 264 262 260 260 259 259 259 259 259 259 259 260 260 262 263 264 266 268 269
246 249 249 251 253 251 249 249 250 253 256 257 257 256 255 253 251 253 256 258 259 259 262 264 263 264 264 262 262 261 261 262 263 263 264 264 264 264 265 265 266 267 269 272
245 246 246 248 249 250 254 252 251 254 258 258 258 256 253 251 252 254 254 256 258 260 261 262 263 262 263 263 263 263 263 262 262 263 264 265 266 267 267 268 269 269 270 272
238 241 243 244 247 251 251 252 252 254 258 259 258 257 255 254 254 256 256 256 259 260 261 262 263 262 262 263 264 265 265 265 265 264 264 265 267 269 268 269 270 272 272 273
236 239 242 243 247 250 251 252 254 255 257 258 259 259 259 258 257 256 257 257 258 259 261 261 261 262 261 263 264 265 267 268 268 268 267 268 267 268 271 271 273 274 275 275
234 239 244 246 241 245 250 252 254 257 259 259 260 261 260 260 259 258 259 260 260 259 259 260 262 263 262 262 263 264 266 267 268 268 268 268 268 269 271 272 273 275 276 277
233 238 241 241 239 245 249 251 252 255 258 259 261 263 263 262 262 262 260 260 260 261 260 261 262 263 262 262 263 264 265 267 269 269 269 268 268 269 270 272 274 276 277 278
233 237 237 240 245 246 249 253 254 257 260 262 264 265 265 264 263 262 262 261 260 260 261 262 263 263 262 262 264 266 267 268 269 269 268 269 270 271 271 272 275 276 278 278
229 234 241 243 247 251 254 256 259 263 266 267 268 269 267 266 265 264 264 263 263 265 265 264 265 265 264 263 264 265 267 269 268 267 269 270 270 271 273 275 277 278 278 279
232 237 242 245 249 254 256 259 264 267 269 271 272 271 269 268 268 267 266 266 267 267 267 267 268 268 268 267 266 267 268 268 269 269 269 271 273 275 275 276 279 280 280 281
237 241 246 248 251 254 258 262 265 268 271 272 273 273 273 272 270 270 270 270 271 270 269 270 271 273 271 270 271 273 273 272 272 273 273 274 276 277 278 278 279 280 281 282
241 244 246 251 255 259 262 264 267 270 273 274 275 274 273 274 272 271 272 272 272 272 273 275 275 275 276 277 276 276 274 274 276 277 276 278 280 282 282 282 283 284 284 284
Height
5884 5885 5885 5885 5884 5883 5882 5881 5879 5876 5873 5871 5868 5865 5861 5857 5854 5850 5848 5846 5844 5844 5845 5846 5847 5851 5854 5858 5861 5864 5867 5870 5872 5874 5876 5877 5878 5879 5879 5879 5879 5879 5879 5879
5882 5883 5883 5882 5881 5881 5880 5879 5877 5874 5871 5869 5867 5864 5860 5856 5853 5849 5847 5845 5843 5843 5844 5845 5847 5850 5853 5856 5859 5862 5866 5868 5871 5873 5874 5875 5876 5877 5878 5878 5878 5878 5879 5879
5879 5881 5879 5879 5879 5878 5878 5876 5875 5872 5869 5867 5865 5863 5859 5855 5852 5849 5846 5844 5843 5843 5844 5845 5847 5850 5852 5855 5858 5861 5864 5867 5869 5871 5873 5874 5875 5876 5877 5877 5877 5878 5878 5878
5875 5876 5877 5877 5877 5876 5876 5874 5872 5870 5868 5866 5864 5862 5859 5855 5852 5848 5845 5844 5843 5843 5844 5846 5847 5850 5852 5855 5858 5860 5863 5866 5868 5870 5872 5873 5874 5875 5876 5876 5877 5877 5877 5877
5872 5873 5874 5874 5874 5873 5873 5871 5870 5868 5866 5865 5863 5861 5860 5855 5852 5849 5846 5845 5844 5844 5845 5847 5848 5850 5852 5855 5857 5860 5862 5865 5867 5869 5871 5872 5873 5874 5874 5875 5876 5876 5876 5876
5869 5869 5870 5871 5871 5871 5870 5869 5868 5866 5865 5865 5862 5860 5859 5855 5852 5849 5847 5846 5845 5846 5846 5847 5849 5850 5852 5855 5857 5859 5861 5863 5866 5868 5869 5870 5871 5872 5873 5874 5874 5875 5875 5875
5865 5866 5867 5868 5868 5868 5868 5868 5868 5867 5866 5865 5861 5859 5858 5854 5852 5850 5848 5847 5846 5846 5847 5848 5849 5851 5853 5855 5857 5858 5860 5862 5865 5866 5867 5868 5869 5870 5871 5872 5873 5873 5874 5874
5863 5865 5864 5864 5865 5865 5865 5865 5866 5865 5865 5863 5859 5857 5856 5853 5852 5850 5849 5848 5847 5847 5847 5848 5849 5851 5853 5854 5856 5858 5860 5861 5863 5864 5866 5867 5868 5869 5870 5871 5871 5872 5872 5872
5859 5861 5861 5860 5861 5861 5861 5861 5862 5861 5860 5859 5859 5856 5854 5852 5851 5850 5849 5848 5847 5847 5848 5848 5849 5851 5852 5854 5855 5857 5858 5860 5861 5863 5864 5865 5866 5867 5868 5868 5869 5869 5870 5870
5853 5856 5856 5856 5856 5857 5857 5857 5857 5857 5857 5858 5857 5855 5854 5851 5849 5849 5848 5847 5847 5847 5847 5848 5849 5850 5851 5852 5854 5855 5857 5858 5859 5861 5862 5863 5863 5864 5865 5866 5866 5867 5867 5867
5848 5850 5852 5851 5852 5852 5852 5853 5852 5853 5853 5854 5855 5856 5850 5849 5848 5847 5847 5846 5846 5846 5847 5847 5848 5848 5849 5851 5852 5853 5855 5856 5857 5858 5859 5860 5861 5862 5862 5863 5863 5864 5864 5864
5843 5845 5846 5846 5846 5846 5847 5848 5848 5849 5849 5849 5850 5853 5847 5846 5845 5845 5845 5844 5844 5845 5845 5846 5846 5847 5848 5849 5850 5851 5852 5853 5854 5855 5856 5857 5858 5858 5859 5859 5860 5860 5860 5860
5838 5840 5841 5841 5843 5842 5841 5842 5843 5844 5845 5845 5847 5850 5843 5843 5843 5842 5842 5842 5842 5842 5843 5843 5844 5844 5845 5846 5847 5848 5849 5850 5851 5852 5852 5853 5854 5854 5855 5855 5855 5855 5855 5855
5833 5834 5836 5838 5836 5836 5836 5837 5838 5839 5840 5841 5842 5842 5840 5839 5839 5839 5839 5839 5839 5839 5840 5840 5841 5841 5842 5843 5843 5844 5845 5846 5847 5847 5848 5848 5849 5849 5850 5850 5850 5850 5850 5849
5826 5828 5829 5829 5829 5830 5831 5832 5833 5834 5835 5836 5837 5836 5835 5835 5834 5835 5835 5835 5836 5836 5836 5837 5837 5838 5838 5839 5839 5840 5841 5841 5842 5842 5843 5843 5843 5844 5844 5844 5844 5844 5844 5843
5820 5821 5823 5823 5824 5824 5825 5826 5827 5828 5829 5829 5830 5830 5829 5829 5830 5830 5831 5831 5832 5832 5832 5833 5833 5833 5834 5834 5835 5835 5836 5836 5837 5837 5837 5837 5837 5837 5837 5837 5837 5837 5836 5836
5813 5815 5817 5818 5818 5819 5820 5821 5821 5822 5823 5824 5824 5825 5823 5824 5824 5825 5826 5826 5826 5827 5827 5828 5828 5828 5829 5829 5829 5830 5830 5830 5830 5830 5831 5831 5830 5830 5830 5830 5830 5829 5828 5828
5807 5809 5810 5812 5813 5814 5817 5815 5816 5816 5817 5817 5817 5817 5818 5818 5819 5819 5820 5820 5821 5821 5821 5821 5822 5822 5823 5823 5823 5824 5824 5824 5824 5824 5824 5823 5823 5823 5822 5822 5821 5821 5820 5819
5800 5803 5804 5806 5808 5809 5810 5810 5810 5811 5811 5811 5811 5811 5812 5812 5813 5813 5813 5814 5815 5815 5815 5815 5815 5815 5816 5816 5816 5817 5817 5817 5816 5816 5816 5815 5815 5814 5814 5813 5812 5811 5811 5810
5794 5796 5799 5800 5802 5803 5804 5804 5804 5805 5805 5805 5804 5805 5805 5806 5806 5807 5807 5807 5807 5808 5808 5808 5808 5808 5808 5809 5809 5809 5809 5808 5808 5807 5807 5807 5806 5805 5804 5803 5802 5802 5801 5799
5788 5790 5792 5793 5795 5797 5797 5797 5799 5801 5800 5799 5798 5799 5799 5799 5800 5800 5800 5800 5800 5800 5800 5800 5800 5800 5800 5800 5800 5800 5799 5799 5799 5798 5798 5797 5796 5795 5794 5793 5792 5791 5790 5788
5783 5785 5786 5788 5790 5792 5790 5791 5793 5793 5792 5792 5792 5792 5792 5792 5792 5792 5792 5792 5792 5792 5792 5792 5791 5791 5791 5790 5790 5790 5789 5789 5789 5788 5787 5787 5786 5785 5783 5782 5781 5780 5778 5777
5776 5779 5781 5783 5785 5784 5784 5785 5785 5786 5786 5785 5785 5785 5785 5785 5784 5784 5784 5784 5784 5784 5783 5783 5783 5782 5781 5781 5781 5780 5779 5779 5778 5777 5776 5776 5775 5774 5773 5772 5770 5768 5766 5764
5771 5773 5775 5776 5776 5777 5778 5778 5779 5779 5779 5779 5778 5778 5778 5777 5777 5777 5776 5776 5776 5776 5775 5775 5774 5773 5773 5772 5771 5770 5769 5768 5768 5767 5766 5765 5764 5763 5761 5760 5758 5755 5754 5752
5765 5767 5769 5770 5770 5771 5772 5772 5772 5772 5772 5772 5771 5771 5771 5770 5769 5769 5768 5768 5767 5767 5767 5767 5766 5765 5764 5763 5761 5760 5759 5758 5757 5756 5755 5754 5753 5751 5749 5747 5745 5742 5740 5738
5760 5761 5763 5764 5765 5766 5766 5766 5766 5765 5765 5765 5764 5764 5763 5762 5762 5761 5761 5760 5759 5759 5759 5758 5757 5756 5755 5753 5752 5750 5749 5748 5747 5745 5744 5742 5741 5739 5736 5734 5731 5728 5726 5723